Cape Girardeau, MO

10:25 PM CST on January 19, 2018 (GMT -0600)
Cape Girardeau Regional

Weather History for KCGI - May, 2014

Change the Weather History Date:

Tuesday, May 20, 2014

  Actual Average Record
Temperature  
Mean Temperature 72 °F 68 °F  
Max Temperature 83 °F 79 °F 93 °F (1975)
Min Temperature 60 °F 57 °F 42 °F (2007)
Degree Days  
Heating Degree Days 0 2  
Month to date heating degree days 78 57  
Since 1 July heating degree days 4941 4375  
Cooling Degree Days 7 5  
Month to date cooling degree days 80 59  
Year to date cooling degree days 91 90  
Growing Degree Days 22 (Base 50)    
Moisture  
Dew Point 62 °F    
Average Humidity 70    
Maximum Humidity 84    
Minimum Humidity 55    
Precipitation  
Precipitation 0.00 in 0.16 in 1.09 in (2010)
Month to date precipitation 4.29 3.77  
Year to date precipitation 17.75 19.41  
Sea Level Pressure  
Sea Level Pressure 29.98 in    
Wind  
Wind Speed 13 mph (SSW)    
Max Wind Speed 24 mph    
Max Gust Speed 33 mph    
Visibility 10 miles    
Events      
T = Trace of Precipitation, MM = Missing Value Source: NWS Daily Summary

Daily Weather History Graph

Daily Weather History Graph

Search for Another Location

Airport or City:

Trip Planner

Search our weather history database for the weather conditions in past years. The results will help you decide how hot, cold, wet, or windy it might be!

Date:

Astronomy

May. 20, 2014 Rise Set
Actual Time 5:45 AM CDT 8:04 PM CDT
Civil Twilight 5:16 AM CDT 8:33 PM CDT
Nautical Twilight 4:40 AM CDT 9:10 PM CDT
Astronomical Twilight 4:00 AM CDT 9:50 PM CDT
Moon 12:37 AM CDT 11:49 AM CDT
Length of Visible Light 15h 17m
Length of Day
14h 18m
Waning Gibbous, 60% of the Moon is Illuminated
May 20
Waning Gibbous
May 21
Last Quarter
May 28
New
Jun 5
First Quarter
Jun 12
Full

Hourly Weather History & Observations

Time (CDT) Temp. Heat Index Dew Point Humidity Pressure Visibility Wind Dir Wind Speed Gust Speed Precip Events Conditions
12:53 AM 71.1 °F - 60.1 °F 68% 29.98 in 10.0 mi South 11.5 mph - N/A   Clear
1:53 AM 70.0 °F - 59.0 °F 68% 29.97 in 10.0 mi South 13.8 mph - N/A   Clear
2:53 AM 69.1 °F - 57.9 °F 68% 29.98 in 10.0 mi South 10.4 mph - N/A   Clear
3:53 AM 66.2 °F - 57.2 °F 73% 30.00 in 10.0 mi Calm Calm - N/A   Clear
4:53 AM 63.0 °F - 57.0 °F 81% 30.03 in 10.0 mi Calm Calm - N/A   Clear
5:53 AM 64.0 °F - 57.9 °F 80% 30.02 in 10.0 mi South 8.1 mph - N/A   Clear
6:53 AM 66.2 °F - 59.0 °F 78% 30.03 in 10.0 mi South 12.7 mph - N/A   Clear
7:53 AM 70.0 °F - 60.1 °F 71% 30.03 in 10.0 mi South 11.5 mph - N/A   Clear
8:53 AM 73.0 °F - 62.1 °F 68% 30.04 in 10.0 mi South 12.7 mph - N/A   Clear
9:53 AM 73.9 °F - 62.1 °F 66% 30.02 in 10.0 mi SSW 19.6 mph 26.5 mph N/A   Clear
10:53 AM 77.0 °F - 64.0 °F 64% 30.02 in 10.0 mi SSW 15.0 mph 24.2 mph N/A   Clear
11:53 AM 79.0 °F - 64.9 °F 62% 30.01 in 10.0 mi SSW 15.0 mph - N/A   Partly Cloudy
12:53 PM 80.1 °F 81.7 °F 64.0 °F 58% 30.00 in 10.0 mi SSW 15.0 mph 25.3 mph N/A   Partly Cloudy
1:53 PM 81.0 °F 82.7 °F 64.9 °F 58% 29.98 in 10.0 mi SSW 15.0 mph 25.3 mph N/A   Partly Cloudy
2:53 PM 82.0 °F 83.8 °F 64.9 °F 56% 29.96 in 10.0 mi SW 20.7 mph 24.2 mph N/A   Clear
3:53 PM 82.0 °F 83.8 °F 64.9 °F 56% 29.95 in 10.0 mi SSW 17.3 mph 27.6 mph N/A   Clear
4:53 PM 82.0 °F 83.4 °F 64.0 °F 54% 29.94 in 10.0 mi SSW 20.7 mph 27.6 mph N/A   Clear
5:53 PM 80.1 °F 81.9 °F 64.9 °F 60% 29.94 in 10.0 mi SSW 18.4 mph 27.6 mph N/A   Clear
6:53 PM 79.0 °F - 63.0 °F 58% 29.93 in 10.0 mi SSW 17.3 mph 23.0 mph N/A   Clear
7:53 PM 77.0 °F - 62.1 °F 60% 29.93 in 10.0 mi SSW 11.5 mph 18.4 mph N/A   Clear
8:53 PM 75.0 °F - 63.0 °F 66% 29.93 in 10.0 mi SSW 12.7 mph 20.7 mph N/A   Clear
9:53 PM 75.0 °F - 62.1 °F 64% 29.94 in 10.0 mi SSW 12.7 mph 19.6 mph N/A   Clear
10:53 PM 73.9 °F - 62.1 °F 66% 29.94 in 10.0 mi SSW 12.7 mph 19.6 mph N/A   Clear
11:53 PM 73.0 °F - 62.1 °F 68% 29.95 in 10.0 mi SW 9.2 mph - N/A   Clear